Lake Wenatchee to Mission Ridge
Dirtyface Mt
Latest observation 08/31 21:00 PDT
| Time (PDT) | Temp °F 5980' | RH % 5980' | Min mph 5980' | Spd mph 5980' | Gust mph 5980' | Dir ° 5980' |
|---|---|---|---|---|---|---|
| 08/31 21:00 | 55 | 48 | 8 | 12 | 17 | 99 |
| 08/31 20:00 | 55 | 49 | 6 | 11 | 16 | 118 |
| 08/31 19:00 | 56 | 49 | 4 | 7 | 11 | 143 |
| 08/31 18:00 | 58 | 47 | 3 | 6 | 10 | 143 |
| 08/31 17:00 | 62 | 41 | 3 | 6 | 11 | 155 |
| 08/31 16:00 | 61 | 44 | 3 | 7 | 11 | 145 |
| 08/31 15:00 | 61 | 46 | 4 | 7 | 14 | 156 |
| 08/31 14:00 | 58 | 50 | 4 | 8 | 13 | 134 |
| 08/31 13:00 | 56 | 53 | 4 | 9 | 15 | 133 |
| 08/31 12:00 | 54 | 54 | 4 | 10 | 14 | 130 |
| 08/31 11:00 | 52 | 60 | 6 | 13 | 18 | 107 |
| 08/31 10:00 | 50 | 66 | 8 | 13 | 17 | 89 |
| 08/31 09:00 | 49 | 68 | 8 | 11 | 15 | 83 |
| 08/31 08:00 | 47 | 73 | 8 | 12 | 15 | 95 |
| 08/31 07:00 | 46 | 77 | 10 | 12 | 16 | 95 |
| 08/31 06:00 | 45 | 78 | 12 | 15 | 17 | 105 |
| 08/31 05:00 | 46 | 75 | 10 | 12 | 16 | 96 |
| 08/31 04:00 | 47 | 72 | 8 | 11 | 13 | 110 |
| 08/31 03:00 | 47 | 73 | 4 | 8 | 13 | 114 |
| 08/31 02:00 | 49 | 68 | 1 | 4 | 8 | 161 |
| 08/31 01:00 | 48 | 69 | 5 | 8 | 10 | 111 |
| 08/31 00:00 | 49 | 68 | 4 | 6 | 9 | 114 |
| 08/30 23:00 | 49 | 69 | 1 | 5 | 7 | 66 |
| 08/30 22:00 | 48 | 72 | 2 | 5 | 9 | 359 |

